TimeEST,TemperatureF,Dew PointF,Humidity,Sea Level PressureIn,VisibilityMPH,Wind Direction,Wind SpeedMPH,Gust SpeedMPH,PrecipitationIn,Events,Conditions,WindDirDegrees,DateUTC
12:53 AM,71.1,69.1,93,29.96,10.0,South,6.9,-,N/A,,Overcast,180,2012-12-29 05:53:00
1:53 AM,71.1,69.1,93,29.94,10.0,South,9.2,-,N/A,,Overcast,170,2012-12-29 06:53:00
2:53 AM,72.0,69.1,91,29.92,10.0,South,11.5,-,N/A,,Partly Cloudy,180,2012-12-29 07:53:00
3:53 AM,71.1,69.1,93,29.92,10.0,South,10.4,-,N/A,,Mostly Cloudy,190,2012-12-29 08:53:00
4:53 AM,71.1,69.1,93,29.91,10.0,South,9.2,-,N/A,,Clear,190,2012-12-29 09:53:00
5:27 AM,71.6,69.8,94,29.92,10.0,SSW,11.5,-,N/A,,Mostly Cloudy,200,2012-12-29 10:27:00
5:51 AM,71.6,69.8,94,29.94,10.0,SSW,11.5,-,N/A,,Mostly Cloudy,200,2012-12-29 10:51:00
5:53 AM,71.1,69.1,93,29.94,10.0,SSW,11.5,-,N/A,,Mostly Cloudy,200,2012-12-29 10:53:00
6:02 AM,71.6,69.8,94,29.95,10.0,SSW,10.4,-,N/A,,Scattered Clouds,210,2012-12-29 11:02:00
6:11 AM,71.6,69.8,94,29.96,10.0,SW,11.5,-,N/A,,Mostly Cloudy,220,2012-12-29 11:11:00
6:28 AM,71.6,69.8,94,29.97,10.0,SSW,10.4,-,N/A,,Overcast,210,2012-12-29 11:28:00
6:53 AM,72.0,70.0,93,29.97,10.0,SSW,10.4,-,N/A,,Mostly Cloudy,200,2012-12-29 11:53:00
7:38 AM,73.4,69.8,88,29.98,10.0,SSW,15.0,21.9,N/A,,Overcast,200,2012-12-29 12:38:00
7:53 AM,73.0,70.0,90,29.98,10.0,SSW,15.0,23.0,N/A,,Overcast,200,2012-12-29 12:53:00
8:53 AM,73.0,70.0,90,30.00,9.0,SSW,13.8,21.9,N/A,,Overcast,210,2012-12-29 13:53:00
9:53 AM,73.0,71.1,93,30.01,10.0,SW,12.7,-,N/A,,Overcast,220,2012-12-29 14:53:00
10:53 AM,75.9,72.0,87,30.00,10.0,SW,15.0,25.3,N/A,,Overcast,220,2012-12-29 15:53:00
11:04 AM,77.0,71.6,83,30.00,10.0,SW,17.3,24.2,N/A,,Overcast,220,2012-12-29 16:04:00
11:53 AM,80.1,72.0,76,29.96,10.0,SW,17.3,23.0,N/A,,Overcast,230,2012-12-29 16:53:00
12:00 PM,80.6,71.6,74,29.96,10.0,SSW,16.1,26.5,N/A,,Overcast,210,2012-12-29 17:00:00
12:51 PM,80.6,71.6,74,29.93,10.0,SW,12.7,-,N/A,,Mostly Cloudy,230,2012-12-29 17:51:00
12:53 PM,80.1,71.1,74,29.93,10.0,WSW,12.7,-,N/A,,Mostly Cloudy,240,2012-12-29 17:53:00
1:53 PM,82.0,68.0,62,29.91,10.0,WSW,18.4,27.6,N/A,,Mostly Cloudy,240,2012-12-29 18:53:00
2:53 PM,82.0,68.0,62,29.90,10.0,WSW,23.0,29.9,N/A,,Mostly Cloudy,240,2012-12-29 19:53:00
3:53 PM,79.0,70.0,74,29.91,10.0,WNW,12.7,-,N/A,,Mostly Cloudy,290,2012-12-29 20:53:00
4:53 PM,78.1,68.0,71,29.92,10.0,WSW,13.8,-,N/A,,Clear,250,2012-12-29 21:53:00
6:53 PM,70.0,61.0,73,29.99,10.0,WNW,15.0,-,N/A,,Clear,290,2012-12-29 23:53:00
7:53 PM,66.0,57.0,73,30.02,10.0,WNW,10.4,-,N/A,,Clear,290,2012-12-30 00:53:00
8:53 PM,63.0,53.1,70,30.06,10.0,West,13.8,-,N/A,,Clear,280,2012-12-30 01:53:00
9:53 PM,59.0,48.9,69,30.08,10.0,WNW,15.0,21.9,N/A,,Clear,290,2012-12-30 02:53:00
10:53 PM,55.0,46.9,74,30.11,10.0,WNW,13.8,-,N/A,,Clear,290,2012-12-30 03:53:00
11:53 PM,54.0,46.0,75,30.13,10.0,WNW,15.0,-,N/A,,Clear,300,2012-12-30 04:53:00